• In Hungary
  • List of Countries
  • For 7 days
  • Water Temperature
  • Satellite Maps
  • Weather Map
  • News
  • Weather Widgets
  • user-avatar
    Login

    Hourly Weather Magurka

    Today, 22 July, Sunday

    Time Temperature Precipitation Wind Pressure Humidity
    00:00 +15°C° 0 mm 1 mps 691 mmHg 74%
    01:00 +15°C° 0 mm 1 mps 691 mmHg 76%
    02:00 +14°C° 0 mm 1 mps 691 mmHg 77%
    03:00 +14°C° 0 mm 1 mps 690 mmHg 78%
    04:00 +14°C° 0 mm 1 mps 690 mmHg 79%
    05:00 +16°C° 0 mm 1 mps 691 mmHg 76%
    06:00 +18°C° 0 mm 1 mps 691 mmHg 72%
    07:00 +20°C° 0 mm 1 mps 691 mmHg 68%
    08:00 +21°C° 0.3 mm 1 mps 692 mmHg 67%
    09:00 +21°C° 0.3 mm 2 mps 692 mmHg 65%
    10:00 +24°C° 0.3 mm 2 mps 692 mmHg 63%
    11:00 +24°C° 0.7 mm 2 mps 692 mmHg 62%
    12:00 +24°C° 0.7 mm 2 mps 692 mmHg 62%
    13:00 +25°C° 0.7 mm 3 mps 692 mmHg 61%
    14:00 +25°C° 0.6 mm 3 mps 691 mmHg 62%
    15:00 +25°C° 0.6 mm 3 mps 691 mmHg 63%
    16:00 +24°C° 0.6 mm 3 mps 691 mmHg 64%
    17:00 +23°C° 0.3 mm 2 mps 691 mmHg 68%
    18:00 +21°C° 0.3 mm 2 mps 691 mmHg 72%
    19:00 +21°C° 0.3 mm 1 mps 691 mmHg 75%
    20:00 +20°C° 0.1 mm 1 mps 691 mmHg 78%
    21:00 +19°C° 0.1 mm 1 mps 691 mmHg 80%
    22:00 +18°C° 0.1 mm 1 mps 691 mmHg 82%
    23:00 +16°C° 0 mm 1 mps 691 mmHg 83%

    Tomorrow, 23 July, Monday

    Time Temperature Precipitation Wind Pressure Humidity
    00:00 +16°C° 0 mm 1 mps 691 mmHg 85%
    01:00 +15°C° 0 mm 1 mps 691 mmHg 86%
    02:00 +15°C° 0 mm 1 mps 691 mmHg 86%
    03:00 +14°C° 0 mm 1 mps 691 mmHg 87%
    04:00 +14°C° 0 mm 1 mps 691 mmHg 87%
    05:00 +15°C° 0 mm 1 mps 691 mmHg 84%
    06:00 +17°C° 0 mm 2 mps 692 mmHg 82%
    07:00 +18°C° 0 mm 2 mps 692 mmHg 79%
    08:00 +19°C° 0 mm 2 mps 692 mmHg 71%
    09:00 +21°C° 0 mm 3 mps 692 mmHg 63%
    10:00 +22°C° 0 mm 3 mps 693 mmHg 55%
    11:00 +24°C° 0 mm 3 mps 693 mmHg 54%
    12:00 +24°C° 0 mm 3 mps 693 mmHg 54%
    13:00 +23°C° 0 mm 4 mps 693 mmHg 53%
    14:00 +23°C° 0.1 mm 4 mps 693 mmHg 54%
    15:00 +23°C° 0.1 mm 4 mps 693 mmHg 55%
    16:00 +23°C° 0.1 mm 4 mps 693 mmHg 56%
    17:00 +22°C° 0.2 mm 4 mps 693 mmHg 64%
    18:00 +20°C° 0.2 mm 3 mps 693 mmHg 71%
    19:00 +19°C° 0.2 mm 3 mps 692 mmHg 79%
    20:00 +18°C° 0 mm 2 mps 693 mmHg 81%
    21:00 +17°C° 0 mm 2 mps 693 mmHg 83%
    22:00 +16°C° 0 mm 2 mps 693 mmHg 85%
    23:00 +15°C° 0 mm 2 mps 693 mmHg 86%

    Day after tomorrow, 24 July, Tuesday

    Time Temperature Precipitation Wind Pressure Humidity
    00:00 +15°C° 0 mm 1 mps 693 mmHg 87%
    01:00 +14°C° 0 mm 1 mps 692 mmHg 88%
    02:00 +14°C° 0 mm 1 mps 693 mmHg 89%
    03:00 +14°C° 0 mm 1 mps 693 mmHg 91%
    04:00 +13°C° 0 mm 1 mps 693 mmHg 92%
    05:00 +15°C° 0 mm 1 mps 693 mmHg 88%
    06:00 +16°C° 0 mm 2 mps 693 mmHg 85%
    07:00 +17°C° 0 mm 2 mps 694 mmHg 81%
    08:00 +19°C° 0.1 mm 2 mps 694 mmHg 74%
    09:00 +20°C° 0.1 mm 3 mps 694 mmHg 66%
    10:00 +22°C° 0.1 mm 4 mps 694 mmHg 59%
    11:00 +22°C° 0.1 mm 4 mps 694 mmHg 57%
    12:00 +23°C° 0.1 mm 4 mps 694 mmHg 54%
    13:00 +23°C° 0.1 mm 4 mps 694 mmHg 52%
    14:00 +23°C° 0.2 mm 4 mps 694 mmHg 54%
    15:00 +23°C° 0.2 mm 4 mps 694 mmHg 56%
    16:00 +23°C° 0.2 mm 4 mps 693 mmHg 57%
    17:00 +22°C° 0.2 mm 3 mps 693 mmHg 64%
    18:00 +20°C° 0.2 mm 3 mps 693 mmHg 70%
    19:00 +19°C° 0.2 mm 2 mps 693 mmHg 76%
    20:00 +18°C° 0 mm 2 mps 693 mmHg 79%
    21:00 +18°C° 0 mm 1 mps 693 mmHg 82%
    22:00 +16°C° 0 mm 1 mps 693 mmHg 85%
    23:00 +15°C° 0 mm 1 mps 693 mmHg 87%

    25 July, Wednesday

    Time Temperature Precipitation Wind Pressure Humidity
    00:00 +15°C° 0 mm 1 mps 693 mmHg 88%
    01:00 +14°C° 0 mm 1 mps 693 mmHg 90%
    02:00 +14°C° 0 mm 1 mps 693 mmHg 91%
    03:00 +14°C° 0 mm 1 mps 693 mmHg 92%
    04:00 +14°C° 0 mm 1 mps 693 mmHg 93%
    05:00 +15°C° 0 mm 1 mps 693 mmHg 89%
    06:00 +16°C° 0 mm 1 mps 694 mmHg 85%
    07:00 +18°C° 0 mm 2 mps 694 mmHg 81%
    08:00 +19°C° 0.1 mm 2 mps 694 mmHg 75%
    09:00 +21°C° 0.1 mm 2 mps 695 mmHg 68%
    10:00 +22°C° 0.1 mm 3 mps 695 mmHg 62%
    11:00 +22°C° 0.3 mm 3 mps 695 mmHg 61%
    12:00 +24°C° 0.3 mm 3 mps 695 mmHg 60%
    13:00 +24°C° 0.3 mm 3 mps 694 mmHg 59%
    14:00 +24°C° 0.2 mm 3 mps 694 mmHg 59%
    15:00 +24°C° 0.2 mm 3 mps 694 mmHg 59%
    16:00 +24°C° 0.2 mm 3 mps 694 mmHg 59%
    17:00 +23°C° 0.1 mm 2 mps 694 mmHg 63%
    18:00 +21°C° 0.1 mm 2 mps 694 mmHg 68%
    19:00 +20°C° 0.1 mm 2 mps 694 mmHg 73%
    20:00 +19°C° 0 mm 1 mps 694 mmHg 76%
    21:00 +18°C° 0 mm 1 mps 694 mmHg 78%
    22:00 +16°C° 0 mm 1 mps 694 mmHg 81%
    23:00 +16°C° 0 mm 1 mps 694 mmHg 83%

    26 July, Thursday

    Time Temperature Precipitation Wind Pressure Humidity
    00:00 +15°C° 0 mm 1 mps 694 mmHg 84%
    01:00 +15°C° 0 mm 1 mps 693 mmHg 86%
    02:00 +15°C° 0 mm 1 mps 693 mmHg 88%
    03:00 +14°C° 0 mm 1 mps 693 mmHg 89%
    04:00 +14°C° 0 mm 1 mps 693 mmHg 91%
    05:00 +16°C° 0 mm 1 mps 694 mmHg 87%
    06:00 +18°C° 0 mm 1 mps 694 mmHg 84%
    07:00 +20°C° 0 mm 1 mps 695 mmHg 80%
    08:00 +20°C° 0.1 mm 2 mps 695 mmHg 74%
    09:00 +21°C° 0.1 mm 2 mps 695 mmHg 68%
    10:00 +24°C° 0.1 mm 3 mps 695 mmHg 62%
    11:00 +24°C° 0.1 mm 3 mps 695 mmHg 58%
    12:00 +25°C° 0.1 mm 3 mps 695 mmHg 54%
    13:00 +26°C° 0.1 mm 3 mps 695 mmHg 51%
    14:00 +26°C° 0 mm 3 mps 695 mmHg 51%
    15:00 +26°C° 0 mm 4 mps 695 mmHg 52%
    16:00 +25°C° 0 mm 4 mps 695 mmHg 53%
    17:00 +24°C° 0.1 mm 3 mps 695 mmHg 60%
    18:00 +21°C° 0.1 mm 2 mps 695 mmHg 68%
    19:00 +20°C° 0.1 mm 2 mps 694 mmHg 75%
    20:00 +20°C° 0 mm 1 mps 694 mmHg 79%
    21:00 +19°C° 0 mm 1 mps 694 mmHg 83%
    22:00 +18°C° 0 mm 1 mps 694 mmHg 87%
    23:00 +16°C° 0 mm 1 mps 694 mmHg 89%

    27 July, Friday

    Time Temperature Precipitation Wind Pressure Humidity
    00:00 +16°C° 0 mm 1 mps 694 mmHg 91%
    01:00 +16°C° 0 mm 1 mps 694 mmHg 93%
    02:00 +15°C° 0.1 mm 1 mps 694 mmHg 94%
    03:00 +15°C° 0.1 mm 1 mps 694 mmHg 95%
    04:00 +15°C° 0.1 mm 1 mps 694 mmHg 96%
    05:00 +16°C° 0.1 mm 1 mps 694 mmHg 93%
    06:00 +18°C° 0.1 mm 1 mps 694 mmHg 91%
    07:00 +19°C° 0.1 mm 1 mps 695 mmHg 88%
    08:00 +20°C° 0.2 mm 1 mps 695 mmHg 85%
    09:00 +21°C° 0.2 mm 1 mps 695 mmHg 81%
    10:00 +22°C° 0.2 mm 1 mps 695 mmHg 77%
    11:00 +23°C° 0.3 mm 2 mps 695 mmHg 72%
    12:00 +24°C° 0.3 mm 2 mps 695 mmHg 67%
    13:00 +25°C° 0.3 mm 2 mps 695 mmHg 62%
    14:00 +25°C° 0.6 mm 2 mps 695 mmHg 63%
    15:00 +25°C° 0.6 mm 2 mps 695 mmHg 64%
    16:00 +25°C° 0.6 mm 2 mps 695 mmHg 65%
    17:00 +24°C° 0.3 mm 1 mps 694 mmHg 70%
    18:00 +23°C° 0.3 mm 1 mps 694 mmHg 74%
    19:00 +22°C° 0.3 mm 1 mps 694 mmHg 79%
    20:00 +21°C° 0 mm 1 mps 694 mmHg 82%
    21:00 +20°C° 0 mm 1 mps 694 mmHg 85%
    22:00 +19°C° 0 mm 1 mps 694 mmHg 88%
    23:00 +16°C° 0.1 mm 0 mps 694 mmHg 89%
    Show more